Weather History for Wooster, OH

Change the Weather History Date:

Sunday, November 24, 2013

  Actual Average Record
Temperature  
Mean Temperature 16 °F -  
Max Temperature 19 °F 45 °F 64 °F (2001)
Min Temperature 14 °F 30 °F 12 °F (2005)
Degree Days  
Heating Degree Days 48    
Moisture  
Dew Point 10 °F    
Average Humidity 73    
Maximum Humidity 81    
Minimum Humidity 57    
Precipitation  
Precipitation 0.00 in - - ()
Sea Level Pressure  
Sea Level Pressure 30.52 in    
Wind  
Wind Speed 13 mph (WNW)    
Max Wind Speed 17 mph    
Max Gust Speed 26 mph    
Visibility 7 miles    
Events Snow    
Averages and records for this station are not official NWS values.
T = Trace of Precipitation, MM = Missing Value Source: NWS Daily Summary

Daily Weather History Graph

Daily Weather History Graph

Search for Another Location

Airport:

Trip Planner

Search our weather history database for the weather conditions in past years. The results will help you decide how hot, cold, wet, or windy it might be!

Date:

Astronomy

Nov. 24, 2013 Rise Set
Actual Time 7:25 AM EST 5:02 PM EST
Civil Twilight 6:55 AM EST 5:33 PM EST
Nautical Twilight 6:21 AM EST 6:06 PM EST
Astronomical Twilight 5:48 AM EST 6:39 PM EST
Moon 11:28 PM EST (11/24) 12:11 PM EST (11/24)
Length of Visible Light 10h 37m
Length of Day
9h 37m
Waning Gibbous, 61% of the Moon is Illuminated
Nov 24
Waning Gibbous
Nov 25
Last Quarter
Dec 2
New
Dec 9
First Quarter
Dec 17
Full

Hourly Weather History & Observations

Time (EST) Temp. Windchill Dew Point Humidity Pressure Visibility Wind Dir Wind Speed Gust Speed Precip Events Conditions
12:56 AM 18.0 °F 4.8 °F 6.1 °F 60% 30.46 in 10.0 mi NNW 12.7 mph 23.0 mph 0.00 in   Scattered Clouds
1:56 AM 18.0 °F 3.1 °F 5.0 °F 57% 30.47 in 10.0 mi NNW 16.1 mph 26.5 mph N/A   Partly Cloudy
2:56 AM 18.0 °F 3.6 °F 5.0 °F 57% 30.49 in 10.0 mi NNW 15.0 mph 24.2 mph N/A   Partly Cloudy
3:47 AM 17.6 °F 3.7 °F 10.4 °F 73% 30.44 in 4.0 mi NW 13.8 mph 23.0 mph 0.00 in Snow Light Snow
3:56 AM 17.1 °F 3.0 °F 12.0 °F 81% 30.49 in 2.5 mi NW 13.8 mph - 0.00 in Snow Light Snow
4:05 AM 17.6 °F 3.7 °F 12.2 °F 79% 30.43 in 1.0 mi NW 13.8 mph - 0.00 in Snow Light Snow
4:26 AM 17.6 °F 4.3 °F 12.2 °F 79% 30.44 in 1.5 mi NW 12.7 mph - 0.00 in Snow Light Snow
4:56 AM 17.1 °F 3.6 °F 12.0 °F 81% 30.50 in 1.5 mi NW 12.7 mph - 0.00 in Snow Light Snow
5:07 AM 17.6 °F 3.7 °F 10.4 °F 73% 30.44 in 2.5 mi NW 13.8 mph - 0.00 in Snow Light Snow
5:14 AM 17.6 °F 3.2 °F 10.4 °F 73% 30.44 in 5.0 mi WNW 15.0 mph - 0.00 in Snow Light Snow
5:34 AM 17.6 °F 3.2 °F 10.4 °F 73% 30.45 in 5.0 mi NW 15.0 mph 23.0 mph 0.00 in Snow Light Snow
5:52 AM 15.8 °F 0.9 °F 10.4 °F 79% 30.46 in 3.0 mi WNW 15.0 mph - 0.00 in Snow Light Snow
5:56 AM 16.0 °F 1.1 °F 10.0 °F 77% 30.52 in 3.0 mi WNW 15.0 mph - 0.00 in Snow Light Snow
6:03 AM 15.8 °F -0.2 °F 10.4 °F 79% 30.46 in 5.0 mi WNW 17.3 mph - 0.00 in Snow Light Snow
6:10 AM 15.8 °F 0.3 °F 10.4 °F 79% 30.47 in 5.0 mi WNW 16.1 mph - 0.00 in Snow Light Snow
6:56 AM 16.0 °F 1.7 °F 9.0 °F 74% 30.53 in 8.0 mi WNW 13.8 mph - 0.00 in Snow Light Snow
7:31 AM 15.8 °F 2.1 °F 10.4 °F 79% 30.49 in 2.5 mi WNW 12.7 mph - 0.00 in Snow Light Snow
7:56 AM 16.0 °F 1.7 °F 10.0 °F 77% 30.56 in 2.5 mi WNW 13.8 mph 20.7 mph 0.00 in Snow Light Snow
8:04 AM 15.8 °F 2.1 °F 10.4 °F 79% 30.50 in 4.0 mi WNW 12.7 mph - 0.00 in Snow Light Snow
8:17 AM 15.8 °F 0.9 °F 10.4 °F 79% 30.50 in 2.0 mi WNW 15.0 mph - 0.00 in Snow Light Snow
8:21 AM 15.8 °F 2.7 °F 8.6 °F 73% 30.51 in 3.0 mi WNW 11.5 mph - 0.00 in Snow Light Snow
8:37 AM 15.8 °F 3.4 °F 10.4 °F 79% 30.52 in 5.0 mi WNW 10.4 mph - 0.00 in Snow Light Snow
8:44 AM 15.8 °F 1.4 °F 10.4 °F 79% 30.51 in 8.0 mi WNW 13.8 mph - 0.00 in   Mostly Cloudy
8:56 AM 16.0 °F 3.6 °F 10.0 °F 77% 30.58 in 10.0 mi WNW 10.4 mph - 0.00 in   Partly Cloudy
9:29 AM 17.6 °F 4.3 °F 10.4 °F 73% 30.53 in 10.0 mi NW 12.7 mph - N/A   Mostly Cloudy
9:36 AM 17.6 °F 5.0 °F 10.4 °F 73% 30.54 in 10.0 mi WNW 11.5 mph - N/A   Scattered Clouds
9:45 AM 17.6 °F 5.7 °F 10.4 °F 73% 30.54 in 10.0 mi NW 10.4 mph - N/A   Mostly Cloudy
9:56 AM 17.1 °F 3.6 °F 10.9 °F 77% 30.61 in 9.0 mi WNW 12.7 mph - N/A   Mostly Cloudy
10:27 AM 17.6 °F 4.3 °F 10.4 °F 73% 30.54 in 2.5 mi NW 12.7 mph - 0.00 in Snow Light Snow
10:39 AM 17.6 °F 4.3 °F 10.4 °F 73% 30.54 in 4.0 mi West 12.7 mph - 0.00 in Snow Light Snow
10:56 AM 19.0 °F 7.5 °F 10.9 °F 71% 30.60 in 10.0 mi WNW 10.4 mph - 0.00 in   Mostly Cloudy
11:05 AM 19.4 °F 6.6 °F 10.4 °F 68% 30.54 in 10.0 mi WNW 12.7 mph - N/A   Mostly Cloudy
11:56 AM 19.9 °F 6.2 °F 12.0 °F 71% 30.59 in 5.0 mi WNW 15.0 mph - 0.00 in Snow Light Snow
12:56 PM 19.9 °F 6.7 °F 10.0 °F 65% 30.58 in 9.0 mi West 13.8 mph - 0.00 in   Overcast
1:56 PM 19.9 °F 6.2 °F 9.0 °F 62% 30.57 in 10.0 mi WNW 15.0 mph - N/A   Overcast
2:56 PM 19.9 °F 6.7 °F 7.0 °F 57% 30.58 in 10.0 mi WNW 13.8 mph - N/A   Overcast
3:56 PM 19.9 °F 10.1 °F 8.1 °F 60% 30.58 in 10.0 mi NW 8.1 mph - N/A   Mostly Cloudy
4:56 PM 19.0 °F 7.5 °F 8.1 °F 62% 30.58 in 10.0 mi WNW 10.4 mph - N/A   Scattered Clouds
5:56 PM 16.0 °F 8.8 °F 8.1 °F 71% 30.58 in 10.0 mi West 4.6 mph - N/A   Partly Cloudy
6:56 PM 17.1 °F - 9.0 °F 71% 30.58 in 10.0 mi Calm Calm - N/A   Overcast
7:56 PM 17.1 °F - 9.0 °F 71% 30.57 in 10.0 mi Calm Calm - N/A   Mostly Cloudy
8:56 PM 15.1 °F - 9.0 °F 77% 30.55 in 10.0 mi Calm Calm - N/A   Clear
9:56 PM 14.0 °F - 9.0 °F 80% 30.53 in 10.0 mi Calm Calm - N/A   Clear
10:56 PM 15.1 °F 6.4 °F 9.0 °F 77% 30.53 in 10.0 mi SW 5.8 mph - N/A   Clear
11:56 PM 15.1 °F 5.2 °F 10.0 °F 80% 30.52 in 10.0 mi SW 6.9 mph - N/A   Clear